Location: ?????????
(44.2517°N, 135.2292°E)
Time: 16:35:09
(UTC+00:00)

ARIANE 6 FM1 Upper Stage - Pass Details

Date: 23 January 2026
Orbit: 522 x 609 km, 62.0° (Epoch: 11 February)

Event Time Altitude Azimuth Distance (km) Brightness Sun altitude
Rises 11:11:52 0° 260° (W) 2,696 7.1 -34.9°
Reaches altitude 10° 11:14:37 10° 279° (W) 1,793 6.0 -35.4°
Enters shadow 11:15:19 13° 287° (WNW) 1,609 5.7 -35.5°
